Regional Weather Roundup
Issued by NWS

Home | Current Version | Previous Version | Text Only | Print | Product List | Glossary Off
Versions: 1 2 3 4 5 6 7 8 9 10 11 12 13 14 15 16 17 18 19 20 21 22 23 24 25 26 27 28 29 30 31 32 33 34 35 36 37 38 39 40 41 42 43 44 45 46 47 48 49 50

000
ASUS44 KMEG 281010
RWRTN
TENNESSEE HOURLY STATE WEATHER ROUNDUP
NATIONAL WEATHER SERVICE MEMPHIS TN
500 AM CDT FRI APR 28 2017

TNZ002-004-019-021-049-052-054-088>092-281100-
WEST TENNESSEE

CITY           SKY/WX    TMP DP  RH WIND       PRES   REMARKS
MEMPHIS INTL   MOCLDY    59  54  83 E5        29.81R
NWS MEMPHIS      N/A     57 N/A N/A MISG        N/A
JACKSON        CLOUDY    54  52  93 E6        29.83F
DYERSBURG      MOCLDY    55  52  89 E5        29.84S
SOMERVILLE     MOCLDY    55  54  94 CALM      29.81R
UNION CITY     CLEAR     55  52  88 CALM      29.85S
BOLIVAR        PTCLDY    55  54  94 CALM      29.82S
PARIS          CLEAR     52  50  93 E6        29.86F
HUNTINGDON     MOCLDY    54  52  94 E6        29.85F
LEXINGTON      CLEAR     54  52  94 E3        29.85F
SAVANNAH       CLEAR     52  52 100 CALM      29.85S
$$

TNZ008-025-027-028-033-062-065-066-281100-
NORTH MIDDLE TENNESSEE

CITY           SKY/WX    TMP DP  RH WIND       PRES   REMARKS
NASHVILLE      MOCLDY    53  51  93 CALM      29.91S
PORTLAND       PTCLDY    54  50  87 SE3       29.91S
CLARKSVILLE    CLOUDY    53  49  86 E5        29.91R
SMYRNA         MOCLDY    53  52  96 CALM      29.92S
COOKEVILLE     PTCLDY    50  50 100 CALM      29.92R
GALLATIN       PTCLDY    52  50  93 CALM      29.94S
CROSSVILLE     CLEAR     48  46  93 CALM      29.97R
$$

TNZ061-075-076-078-094-096-097-281100-
SOUTH MIDDLE TENNESSEE

CITY           SKY/WX    TMP DP  RH WIND       PRES   REMARKS
FAYETTEVILLE     N/A     54  54 100 CALM      29.90R
TULLAHOMA      CLEAR     52  52 100 CALM      29.93R
WINCHESTER     CLEAR     54  52  94 CALM      29.92R
MCMINNVILLE    CLEAR     52  52 100 NE3       29.93R
COLUMBIA       CLEAR    N/A N/A N/A CALM      29.88S
SHELBYVILLE    CLEAR     54  54 100 E6        29.92R
$$

TNZ017-018-042-046-047-281100-
NORTHEAST TENNESSEE

CITY           SKY/WX    TMP DP  RH WIND       PRES   REMARKS
TRI CITIES     FOG       56  56 100 CALM      30.00R VSB 1/4
ELIZABETHTON     N/A     55  55 100 NE3       30.00R
$$

TNZ012-013-036-069-073-074-281100-
CENTRAL EAST TENNESSEE

CITY           SKY/WX    TMP DP  RH WIND       PRES   REMARKS
KNOXVILLE      PTCLDY    54  52  93 NE3       29.95R
OAK RIDGE      CLOUDY    54  53  97 CALM      29.98R FOG
DOWNTOWN KNOXV FOG       54  54 100 CALM      29.97R VSB 0
GATLINBURG     MOCLDY    52  52 100 CALM      29.96R VSB 1
MORRISTOWN     FOG       55  55 100 E3        29.96S VSB 0
JACKSBORO        N/A     50  50 100 CALM      30.00R
$$

TNZ083-085-099-281100-
SOUTHEAST TENNESSEE

CITY           SKY/WX    TMP DP  RH WIND       PRES   REMARKS
CHATTANOOGA    PTCLDY    55  53  93 CALM      29.94R
$$

SKY/WX REPORTED AS FAIR MEANS FEW OR NO CLOUDS BELOW
12 THOUSAND FEET.





USA.gov is the U.S. government's official web portal to all federal, state and local government web resources and services.